Time,TemperatureF,DewpointF,PressureIn,WindDirection,WindDirectionDegrees,WindSpeedMPH,WindSpeedGustMPH,Humidity,HourlyPrecipIn,Conditions,Clouds,dailyrainin,SoftwareType,DateUTC
2013-03-26 00:05:00,14.5,10.8,30.29,West,270,0.0,-999.0,85,-99.99,,,0.00,Acu-Link.com,2013-03-26 05:05:00,
2013-03-26 00:20:00,13.3,9.9,30.29,West,270,0.0,-999.0,86,-99.99,,,0.00,Acu-Link.com,2013-03-26 05:20:00,
2013-03-26 00:35:00,13.6,11.7,30.29,West,270,0.0,-999.0,92,-99.99,,,0.00,Acu-Link.com,2013-03-26 05:35:00,
2013-03-26 00:50:00,13.1,10.0,30.29,West,270,0.0,-999.0,87,-99.99,,,0.00,Acu-Link.com,2013-03-26 05:50:00,
2013-03-26 01:21:00,12.9,11.0,30.28,West,270,0.0,-999.0,92,-99.99,,,0.00,Acu-Link.com,2013-03-26 06:21:00,
2013-03-26 01:36:00,13.1,11.2,30.28,West,270,0.0,-999.0,92,-99.99,,,0.00,Acu-Link.com,2013-03-26 06:36:00,
2013-03-26 01:52:00,13.3,11.4,30.28,West,270,0.0,-999.0,92,-99.99,,,0.00,Acu-Link.com,2013-03-26 06:52:00,
2013-03-26 02:07:00,13.1,10.7,30.28,West,270,0.0,-999.0,90,-99.99,,,0.00,Acu-Link.com,2013-03-26 07:07:00,
2013-03-26 02:22:00,12.4,9.8,30.28,West,270,0.0,-999.0,89,-99.99,,,0.00,Acu-Link.com,2013-03-26 07:22:00,
2013-03-26 02:37:00,12.4,10.5,30.28,West,270,0.0,-999.0,92,-99.99,,,0.00,Acu-Link.com,2013-03-26 07:37:00,
2013-03-26 02:53:00,12.4,10.8,30.28,West,270,1.7,-999.0,93,-99.99,,,0.00,Acu-Link.com,2013-03-26 07:53:00,
2013-03-26 03:08:00,12.4,10.5,30.27,West,270,1.7,-999.0,92,-99.99,,,0.00,Acu-Link.com,2013-03-26 08:08:00,
2013-03-26 03:24:00,12.4,10.5,30.27,West,270,0.0,-999.0,92,-99.99,,,0.00,Acu-Link.com,2013-03-26 08:24:00,
2013-03-26 03:39:00,12.4,10.5,30.27,West,270,0.0,-999.0,92,-99.99,,,0.00,Acu-Link.com,2013-03-26 08:39:00,
2013-03-26 03:54:00,12.0,10.1,30.27,West,270,0.0,-999.0,92,-99.99,,,0.00,Acu-Link.com,2013-03-26 08:54:00,
2013-03-26 04:09:00,11.7,9.8,30.27,West,270,0.0,-999.0,92,-99.99,,,0.00,Acu-Link.com,2013-03-26 09:09:00,
2013-03-26 04:25:00,12.0,10.1,30.27,WSW,247,0.0,-999.0,92,-99.99,,,0.00,Acu-Link.com,2013-03-26 09:25:00,
2013-03-26 04:40:00,11.7,9.8,30.26,SSW,202,0.0,-999.0,92,-99.99,,,0.00,Acu-Link.com,2013-03-26 09:40:00,
2013-03-26 04:55:00,11.7,9.6,30.26,SSW,202,0.0,-999.0,91,-99.99,,,0.00,Acu-Link.com,2013-03-26 09:55:00,
2013-03-26 05:11:00,11.5,9.4,30.27,SSW,202,0.0,-999.0,91,-99.99,,,0.00,Acu-Link.com,2013-03-26 10:11:00,
2013-03-26 05:41:00,11.3,9.7,30.25,SSW,202,0.0,-999.0,93,-99.99,,,0.00,Acu-Link.com,2013-03-26 10:41:00,
2013-03-26 05:56:00,10.4,7.8,30.26,SSW,202,0.0,-999.0,89,-99.99,,,0.00,Acu-Link.com,2013-03-26 10:56:00,
2013-03-26 06:12:00,9.3,6.7,30.25,SSW,202,0.0,-999.0,89,-99.99,,,0.00,Acu-Link.com,2013-03-26 11:12:00,
2013-03-26 06:27:00,10.0,8.6,30.25,SSW,202,0.0,-999.0,94,-99.99,,,0.00,Acu-Link.com,2013-03-26 11:27:00,
2013-03-26 06:42:00,9.1,6.5,30.25,SSW,202,0.0,-999.0,89,-99.99,,,0.00,Acu-Link.com,2013-03-26 11:42:00,
2013-03-26 06:58:00,9.0,5.4,30.24,SSW,202,0.0,-999.0,85,-99.99,,,0.00,Acu-Link.com,2013-03-26 11:58:00,
2013-03-26 07:13:00,9.9,8.5,30.25,SSW,202,0.0,-999.0,94,-99.99,,,0.00,Acu-Link.com,2013-03-26 12:13:00,
2013-03-26 07:28:00,9.9,8.3,30.25,SSW,202,0.0,-999.0,93,-99.99,,,0.00,Acu-Link.com,2013-03-26 12:28:00,
2013-03-26 07:44:00,10.4,8.8,30.25,SSW,202,0.0,-999.0,93,-99.99,,,0.00,Acu-Link.com,2013-03-26 12:44:00,
2013-03-26 07:59:00,12.0,10.1,30.25,South,180,1.7,-999.0,92,-99.99,,,0.00,Acu-Link.com,2013-03-26 12:59:00,
2013-03-26 08:14:00,13.1,11.0,30.26,SW,225,2.2,-999.0,91,-99.99,,,0.00,Acu-Link.com,2013-03-26 13:14:00,
2013-03-26 08:29:00,17.1,13.6,30.26,SSW,202,2.2,-999.0,86,-99.99,,,0.00,Acu-Link.com,2013-03-26 13:29:00,
2013-03-26 08:45:00,19.9,14.7,30.26,South,180,2.2,-999.0,80,-99.99,,,0.00,Acu-Link.com,2013-03-26 13:45:00,
2013-03-26 09:00:00,23.2,16.8,30.25,SSW,202,1.7,-999.0,76,-99.99,,,0.00,Acu-Link.com,2013-03-26 14:00:00,
2013-03-26 09:15:00,23.2,16.8,30.26,SW,225,3.7,-999.0,76,-99.99,,,0.00,Acu-Link.com,2013-03-26 14:15:00,
2013-03-26 09:31:00,24.6,17.5,30.25,West,270,2.2,-999.0,74,-99.99,,,0.00,Acu-Link.com,2013-03-26 14:31:00,
2013-03-26 10:01:00,27.5,18.3,30.24,South,180,5.3,-999.0,68,-99.99,,,0.00,Acu-Link.com,2013-03-26 15:01:00,
2013-03-26 10:17:00,28.9,19.7,30.25,SSW,202,3.2,-999.0,68,-99.99,,,0.00,Acu-Link.com,2013-03-26 15:17:00,
2013-03-26 10:32:00,30.0,19.3,30.24,SE,135,5.8,-999.0,64,-99.99,,,0.00,Acu-Link.com,2013-03-26 15:32:00,
2013-03-26 10:47:00,32.2,20.7,30.24,South,180,6.3,-999.0,62,-99.99,,,0.00,Acu-Link.com,2013-03-26 15:47:00,
2013-03-26 11:02:00,32.2,19.5,30.23,South,180,5.3,-999.0,59,-99.99,,,0.00,Acu-Link.com,2013-03-26 16:02:00,
2013-03-26 11:17:00,33.4,19.4,30.22,South,180,5.8,-999.0,56,-99.99,,,0.00,Acu-Link.com,2013-03-26 16:17:00,
2013-03-26 11:32:00,34.0,19.1,30.22,South,180,6.3,-999.0,54,-99.99,,,0.00,Acu-Link.com,2013-03-26 16:32:00,
2013-03-26 11:47:00,36.0,20.5,30.21,SSW,202,3.7,-999.0,53,-99.99,,,0.00,Acu-Link.com,2013-03-26 16:47:00,
2013-03-26 12:02:00,36.7,20.8,30.21,SSE,157,5.3,-999.0,52,-99.99,,,0.00,Acu-Link.com,2013-03-26 17:02:00,
2013-03-26 12:18:00,37.9,21.4,30.20,South,180,6.3,-999.0,51,-99.99,,,0.00,Acu-Link.com,2013-03-26 17:18:00,
2013-03-26 12:33:00,38.8,21.3,30.20,SSE,157,4.2,-999.0,49,-99.99,,,0.00,Acu-Link.com,2013-03-26 17:33:00,
2013-03-26 12:48:00,38.8,20.8,30.19,SSW,202,4.2,-999.0,48,-99.99,,,0.00,Acu-Link.com,2013-03-26 17:48:00,
2013-03-26 13:03:00,40.1,22.0,30.19,SSW,202,5.8,-999.0,48,-99.99,,,0.00,Acu-Link.com,2013-03-26 18:03:00,
2013-03-26 13:18:00,41.9,23.7,30.18,South,180,6.8,-999.0,48,-99.99,,,0.00,Acu-Link.com,2013-03-26 18:18:00,
2013-03-26 13:33:00,40.8,22.2,30.17,South,180,7.8,-999.0,47,-99.99,,,0.00,Acu-Link.com,2013-03-26 18:33:00,
2013-03-26 13:48:00,41.7,21.9,30.16,ESE,112,6.3,-999.0,45,-99.99,,,0.00,Acu-Link.com,2013-03-26 18:48:00,
2013-03-26 14:04:00,42.4,22.6,30.17,SW,225,6.3,-999.0,45,-99.99,,,0.00,Acu-Link.com,2013-03-26 19:04:00,
2013-03-26 14:19:00,43.3,21.8,30.16,SSW,202,4.2,-999.0,42,-99.99,,,0.00,Acu-Link.com,2013-03-26 19:19:00,
2013-03-26 14:34:00,43.5,21.4,30.15,South,180,4.7,-999.0,41,-99.99,,,0.00,Acu-Link.com,2013-03-26 19:34:00,
2013-03-26 14:49:00,45.0,22.1,30.13,SSE,157,7.3,-999.0,40,-99.99,,,0.00,Acu-Link.com,2013-03-26 19:49:00,
2013-03-26 15:04:00,43.9,20.6,30.12,SW,225,7.3,-999.0,39,-99.99,,,0.00,Acu-Link.com,2013-03-26 20:04:00,
2013-03-26 15:20:00,44.1,21.3,30.12,South,180,6.3,-999.0,40,-99.99,,,0.00,Acu-Link.com,2013-03-26 20:20:00,
2013-03-26 15:35:00,46.0,22.4,30.11,South,180,2.7,-999.0,39,-99.99,,,0.00,Acu-Link.com,2013-03-26 20:35:00,
2013-03-26 15:50:00,45.1,21.0,30.11,West,270,5.3,-999.0,38,-99.99,,,0.00,Acu-Link.com,2013-03-26 20:50:00,
2013-03-26 16:06:00,46.2,22.6,30.10,South,180,6.3,-999.0,39,-99.99,,,0.00,Acu-Link.com,2013-03-26 21:06:00,
2013-03-26 16:36:00,47.1,20.9,30.08,South,180,4.2,-999.0,35,-99.99,,,0.00,Acu-Link.com,2013-03-26 21:36:00,
2013-03-26 16:51:00,45.3,19.3,30.07,South,180,8.9,-999.0,35,-99.99,,,0.00,Acu-Link.com,2013-03-26 21:51:00,
2013-03-26 17:06:00,45.7,20.9,30.07,SE,135,5.3,-999.0,37,-99.99,,,0.00,Acu-Link.com,2013-03-26 22:06:00,
2013-03-26 17:21:00,46.2,20.7,30.07,SSW,202,4.2,-999.0,36,-99.99,,,0.00,Acu-Link.com,2013-03-26 22:21:00,
2013-03-26 17:36:00,46.0,19.9,30.07,South,180,9.4,-999.0,35,-99.99,,,0.00,Acu-Link.com,2013-03-26 22:36:00,
2013-03-26 17:51:00,46.0,21.2,30.07,East,90,8.3,-999.0,37,-99.99,,,0.00,Acu-Link.com,2013-03-26 22:51:00,
2013-03-26 18:07:00,46.0,21.2,30.07,SE,135,5.8,-999.0,37,-99.99,,,0.00,Acu-Link.com,2013-03-26 23:07:00,
2013-03-26 18:22:00,45.3,20.6,30.07,SE,135,2.7,-999.0,37,-99.99,,,0.00,Acu-Link.com,2013-03-26 23:22:00,
2013-03-26 18:37:00,44.4,21.0,30.07,SSE,157,1.7,-999.0,39,-99.99,,,0.00,Acu-Link.com,2013-03-26 23:37:00,
2013-03-26 19:08:00,43.0,20.9,30.07,SE,135,1.7,-999.0,41,-99.99,,,0.00,Acu-Link.com,2013-03-27 00:08:00,
2013-03-26 19:23:00,42.1,20.7,30.07,ESE,112,2.7,-999.0,42,-99.99,,,0.00,Acu-Link.com,2013-03-27 00:23:00,
2013-03-26 19:38:00,40.6,20.9,30.07,South,180,4.7,-999.0,45,-99.99,,,0.00,Acu-Link.com,2013-03-27 00:38:00,
2013-03-26 19:53:00,39.4,20.9,30.06,SE,135,3.2,-999.0,47,-99.99,,,0.00,Acu-Link.com,2013-03-27 00:53:00,
2013-03-26 20:09:00,38.1,20.7,30.06,SE,135,2.7,-999.0,49,-99.99,,,0.00,Acu-Link.com,2013-03-27 01:09:00,
2013-03-26 20:24:00,36.9,20.9,30.07,ESE,112,2.2,-999.0,52,-99.99,,,0.00,Acu-Link.com,2013-03-27 01:24:00,
2013-03-26 20:39:00,36.3,21.3,30.06,South,180,3.7,-999.0,54,-99.99,,,0.00,Acu-Link.com,2013-03-27 01:39:00,
2013-03-26 20:55:00,35.8,21.2,30.07,SE,135,2.7,-999.0,55,-99.99,,,0.00,Acu-Link.com,2013-03-27 01:55:00,
2013-03-26 21:10:00,34.9,21.6,30.07,SSE,157,2.2,-999.0,58,-99.99,,,0.00,Acu-Link.com,2013-03-27 02:10:00,
2013-03-26 21:25:00,34.2,21.4,30.07,SSW,202,1.7,-999.0,59,-99.99,,,0.00,Acu-Link.com,2013-03-27 02:25:00,
2013-03-26 21:40:00,34.2,21.4,30.08,ESE,112,3.2,-999.0,59,-99.99,,,0.00,Acu-Link.com,2013-03-27 02:40:00,
2013-03-26 21:55:00,34.2,21.4,30.08,SSE,157,1.7,-999.0,59,-99.99,,,0.00,Acu-Link.com,2013-03-27 02:55:00,
2013-03-26 22:26:00,35.1,21.8,30.09,SSE,157,2.7,-999.0,58,-99.99,,,0.00,Acu-Link.com,2013-03-27 03:26:00,
2013-03-26 22:42:00,35.1,22.2,30.10,ESE,112,4.2,-999.0,59,-99.99,,,0.00,Acu-Link.com,2013-03-27 03:42:00,
2013-03-26 22:57:00,34.7,21.9,30.10,East,90,4.7,-999.0,59,-99.99,,,0.00,Acu-Link.com,2013-03-27 03:57:00,
2013-03-26 23:27:00,34.0,23.5,30.09,SE,135,3.2,-999.0,65,-99.99,,,0.00,Acu-Link.com,2013-03-27 04:27:00,
2013-03-26 23:42:00,34.0,23.9,30.10,South,180,2.2,-999.0,66,-99.99,,,0.00,Acu-Link.com,2013-03-27 04:42:00,
2013-03-26 23:58:00,33.8,24.0,30.10,SSW,202,7.8,-999.0,67,-99.99,,,0.00,Acu-Link.com,2013-03-27 04:58:00,